Home   Weather   India   Sawai Madhopur   Past weeks
Flag for India

Past Weather in Sawai Madhopur, Rajasthan, India — Yesterday and Last 2 Weeks

Currently: 93 °F. Scattered clouds. (Weather station: Jaipur / Sanganer, India). See more current weather

Past Weather in Sawai Madhopur — Graph

°F

Sawai Madhopur Temperature Yesterday

Maximum temperature yesterday: 108 °F (at 3:00 pm)
Minimum temperature yesterday: 93 °F (at 4:00 am)
Average temperature yesterday: 99 °F

High & Low Weather Summary for the Past Weeks

 TemperatureHumidityPressure
High109 °F (Jun 4, 5:30 pm)70% (Jun 2, 5:30 pm)29.83 "Hg (Jun 2, 5:30 pm)
Low81 °F (Jun 2, 5:30 pm)13% (Jun 9, 5:00 pm)29.53 "Hg (Jun 15, 6:00 pm)
Average97 °F35%29.66 "Hg
* Reported Jun 2 6:30 am — Jun 17 6:30 am, Sawai Madhopur. Weather by CustomWeather, © 2024

Note: Actual official high and low records may vary slightly from our data, if they occured in-between our weather recording intervals... More about our weather records

Sawai Madhopur Weather History for the Previous 24 Hours

Scroll right to see more
 ConditionsComfort  
Time TempWeatherWind HumidityBarometerVisibility
6:30 am
Mon, Jun 17
93 °FScattered clouds.12 mph49%29.65 "Hg2 mi
6:00 am93 °FPassing clouds.9 mph49%29.65 "Hg2 mi
5:30 am93 °FHaze.8 mph53%29.65 "Hg2 mi
5:00 am93 °FHaze.9 mph53%29.62 "Hg2 mi
4:30 am93 °FHaze.9 mph53%29.62 "Hg2 mi
4:00 am93 °FHaze.8 mph53%29.62 "Hg2 mi
3:30 am93 °FHaze.9 mph53%29.62 "Hg2 mi
3:00 am93 °FHaze.9 mph53%29.59 "Hg2 mi
2:30 am93 °FHaze.8 mph49%29.62 "Hg2 mi
2:00 am95 °FHaze.9 mph47%29.62 "Hg2 mi
1:30 am95 °FHaze.8 mph47%29.62 "Hg2 mi
12:30 am97 °FHaze.10 mph44%29.62 "Hg2 mi
12:00 am97 °FHaze.9 mph44%29.62 "Hg2 mi
11:30 pm
Sun, Jun 16
97 °FHaze.9 mph44%29.62 "Hg2 mi
10:30 pm97 °FHaze.9 mph44%29.62 "Hg2 mi
10:00 pm99 °FHaze.9 mph39%29.62 "Hg2 mi
9:30 pm99 °FHaze.9 mph37%29.62 "Hg3 mi
9:00 pm99 °FHaze.9 mph39%29.62 "Hg3 mi
8:30 pm99 °FHaze.9 mph39%29.62 "Hg3 mi
8:00 pm102 °FPassing clouds.13 mph33%29.59 "Hg3 mi
7:30 pm104 °FScattered clouds.12 mph29%29.59 "Hg3 mi
7:00 pm104 °FScattered clouds.9 mph31%29.56 "Hg3 mi
6:30 pm106 °FScattered clouds.9 mph30%29.56 "Hg3 mi
6:00 pm106 °FScattered clouds.9 mph30%29.56 "Hg3 mi
5:30 pm106 °FScattered clouds.7 mph28%29.56 "Hg4 mi
4:30 pm108 °FScattered clouds.14 mph28%29.56 "Hg4 mi
4:00 pm108 °FScattered clouds.7 mph28%29.59 "Hg4 mi
3:30 pm108 °FScattered clouds.7 mph28%29.59 "Hg4 mi
3:00 pm108 °FScattered clouds.9 mph28%29.59 "Hg3 mi
2:30 pm106 °FBroken clouds.10 mph30%29.62 "Hg3 mi
2:00 pm106 °FBroken clouds.6 mph32%29.62 "Hg3 mi
1:30 pm106 °FScattered clouds.8 mph30%29.65 "Hg3 mi
12:30 pm106 °FScattered clouds.12 mph30%29.65 "Hg3 mi
12:00 pm104 °FScattered clouds.12 mph31%29.68 "Hg3 mi
11:00 am102 °FHaze.9 mph33%29.68 "Hg3 mi
10:30 am102 °FHaze.8 mph33%29.68 "Hg3 mi
10:00 am99 °FHaze.13 mph37%29.68 "Hg3 mi
9:30 am99 °FHaze.12 mph37%29.68 "Hg2 mi
9:00 am97 °FHaze.14 mph39%29.68 "Hg2 mi
8:30 am97 °FHaze.12 mph39%29.68 "Hg2 mi
8:00 am95 °FHaze.12 mph41%29.68 "Hg2 mi
7:30 am93 °FHaze.9 mph44%29.68 "Hg2 mi
7:00 am93 °FHaze.8 mph44%29.68 "Hg2 mi
Weather by CustomWeather, © 2024

See weather overview